Location: Unspecified
(0.0000°N, 0.0000°E)
Time: 13:21:57
(UTC+00:00)

S-56A Canister/Altair - Pass Details

Date: 01 June 2024
Orbit: 637 x 2489 km, 38.9° (Epoch: 17 June)

Event Time Altitude Azimuth Distance (km) Brightness Sun altitude
Rises 03:26:13 0° 282° (WNW) 6,015 - -34.7°
Exits shadow 03:33:00 10° 303° (WNW) 5,164 11.4 -33.2°
Reaches altitude 10° 03:33:20 10° 304° (NW) 5,133 11.4 -33.1°
Maximum altitude 03:40:02 14° 331° (NNW) 4,768 11.5 -31.6°
Drops below altitude 10° 03:46:36 10° 359° (N) 4,968 11.9 -30.1°
Sets 03:53:23 0° 22° (NNE) 5,691 12.6 -28.6°
